Location: Newark
(58.9986°N, 38.5006°E)
Time: 15:18:25
(UTC+00:00)

Altair - All Passes

Search period start: 11 April 2021 00:00
Search period end: 21 April 2021 00:00
Orbit: 1501 x 1683 km, 47.2° (Epoch: 10 April)

Date Brightness Start Highest point End Pass type
(mag) Time Alt. Az. Time Alt. Az. Time Alt. Az.
11 Apr - 04:51:08 10° S 04:57:22 20° SE 05:03:29 10° E daylight
11 Apr - 06:51:37 10° SW 06:59:56 36° SSE 07:08:02 10° E daylight
11 Apr - 08:54:33 10° WSW 09:03:03 40° S 09:11:21 10° ESE daylight
11 Apr - 10:58:30 10° W 11:05:56 28° SSW 11:13:15 10° SSE daylight
11 Apr - 13:05:52 10° WSW 13:07:52 11° SW 13:09:51 10° SW daylight
12 Apr - 04:26:26 10° S 04:32:23 18° SE 04:38:13 10° E daylight
12 Apr - 06:26:36 10° SW 06:34:53 35° SSE 06:42:55 10° E daylight
12 Apr - 08:29:27 10° WSW 08:37:59 40° S 08:46:19 10° ESE daylight
12 Apr - 10:33:20 10° W 10:40:55 29° SSW 10:48:22 10° SSE daylight
12 Apr - 12:39:51 10° WSW 12:42:56 12° SW 12:45:59 10° SSW daylight
13 Apr - 04:01:45 10° S 04:07:23 17° SE 04:12:55 10° E daylight
13 Apr - 06:01:36 10° SW 06:09:50 34° SSE 06:17:49 10° E daylight
13 Apr - 08:04:20 10° WSW 08:12:55 41° S 08:21:17 10° ESE daylight
13 Apr - 10:08:10 10° W 10:15:53 30° SSW 10:23:28 10° SSE daylight
13 Apr - 12:14:10 10° WSW 12:17:59 13° SW 12:21:48 10° SSW daylight
14 Apr - 03:37:09 10° SSE 03:42:25 16° SE 03:47:34 10° E daylight
14 Apr - 05:36:36 10° SW 05:44:47 33° SSE 05:52:43 10° E daylight
14 Apr - 07:39:14 10° WSW 07:47:51 41° S 07:56:14 10° ESE daylight
14 Apr - 09:43:00 10° W 09:50:51 32° SSW 09:58:34 10° SSE daylight
14 Apr - 11:48:37 10° WSW 11:53:02 14° SW 11:57:26 10° SSW daylight
15 Apr - 03:12:37 10° SSE 03:17:26 15° SE 03:22:11 10° ESE daylight
15 Apr - 05:11:38 10° SSW 05:19:44 32° SSE 05:27:36 10° E daylight
15 Apr - 07:14:08 10° WSW 07:22:47 41° S 07:31:11 10° ESE daylight
15 Apr - 09:17:51 10° W 09:25:49 33° SSW 09:33:38 10° SE daylight
15 Apr - 11:23:10 10° W 11:28:05 16° SW 11:32:58 10° SSW daylight
16 Apr - 02:48:09 10° SSE 02:52:28 14° SE 02:56:42 10° ESE daylight
16 Apr - 04:46:39 10° SSW 04:54:41 31° SSE 05:02:29 10° E daylight
16 Apr - 06:49:02 10° WSW 06:57:43 41° S 07:06:08 10° ESE daylight
16 Apr - 08:52:41 10° W 09:00:47 34° SSW 09:08:42 10° SE daylight
16 Apr - 10:57:46 10° W 11:03:07 17° SW 11:08:25 10° S daylight
17 Apr - 02:23:49 10° SSE 02:27:30 13° SE 02:31:08 10° ESE daylight
17 Apr - 04:21:42 10° SSW 04:29:38 30° SSE 04:37:21 10° E daylight
17 Apr - 06:23:56 10° WSW 06:32:38 41° S 06:41:05 10° ESE daylight
17 Apr - 08:27:32 10° W 08:35:44 35° SSW 08:43:45 10° SE daylight
17 Apr - 10:32:25 10° W 10:38:09 18° SW 10:43:49 10° S daylight
18 Apr - 01:59:41 10° SE 02:02:32 12° SE 02:05:22 10° ESE daylight
18 Apr - 03:56:46 10° SSW 04:04:36 29° SSE 04:12:13 10° E daylight
18 Apr - 05:58:50 10° WSW 06:07:34 40° S 06:16:01 10° ESE daylight
18 Apr - 08:02:23 10° W 08:10:42 36° SSW 08:18:47 10° SE daylight
18 Apr - 10:07:06 10° W 10:13:11 20° SW 10:19:10 10° S daylight
19 Apr - 01:36:02 10° SE 01:37:34 10° SE 01:39:08 10° ESE daylight
19 Apr - 03:31:51 10° SSW 03:39:34 27° SSE 03:47:04 10° E daylight
19 Apr - 05:33:45 10° WSW 05:42:30 40° S 05:50:57 10° ESE daylight
19 Apr - 07:37:14 10° WSW 07:45:38 37° SSW 07:53:49 10° SE daylight
19 Apr - 09:41:48 10° W 09:48:11 21° SW 09:54:29 10° S daylight
20 Apr - 03:06:57 10° SSW 03:14:32 26° SSE 03:21:54 10° E daylight
20 Apr - 05:08:40 10° SW 05:17:25 40° S 05:25:52 10° ESE daylight
20 Apr - 07:12:05 10° WSW 07:20:35 38° SSW 07:28:50 10° SE daylight
20 Apr - 09:16:32 10° W 09:23:12 22° SW 09:29:45 10° S daylight
